CDT,Max TemperatureF,Mean TemperatureF,Min TemperatureF,Max Dew PointF,MeanDew PointF,Min DewpointF,Max Humidity, Mean Humidity, Min Humidity, Max Sea Level PressureIn, Mean Sea Level PressureIn, Min Sea Level PressureIn, Max VisibilityMiles, Mean VisibilityMiles, Min VisibilityMiles, Max Wind SpeedMPH, Mean Wind SpeedMPH, Max Gust SpeedMPH,PrecipitationIn, CloudCover, Events, WindDirDegrees
2013-4-1,28,24,21,9,7,5,58,51,37,30.06,30.03,29.94,10,10,5,20,15,28,0.00,5,,308
2013-4-2,30,22,15,16,9,3,73,50,37,30.27,30.19,30.10,10,10,10,16,9,22,0.00,1,,298
2013-4-3,42,22,3,9,5,-2,85,46,23,30.35,30.26,30.08,10,10,10,17,4,25,0.00,0,,198
2013-4-4,39,34,30,23,20,18,64,52,45,30.09,30.01,29.96,10,10,10,22,16,29,0.00,0,,331
2013-4-5,35,26,17,16,13,10,80,51,38,30.22,30.17,30.11,10,10,10,6,2,,0.00,0,,188
2013-4-6,37,34,30,30,28,25,93,80,70,29.78,29.61,29.54,10,6,1,14,7,23,0.24,8,,122
2013-4-7,39,34,30,28,26,25,93,76,56,29.89,29.78,29.59,10,10,3,13,7,,0.01,7,,335
2013-4-8,37,35,33,34,32,28,93,86,81,30.01,29.86,29.75,10,3,0,12,5,,0.03,8,,25
2013-4-9,35,34,32,30,26,16,93,75,48,30.16,30.08,30.00,10,6,0,16,5,22,0.01,6,,12
2013-4-10,37,35,33,23,19,16,60,51,45,30.15,30.11,30.07,10,10,10,14,12,20,0.00,3,,35
2013-4-11,33,30,26,21,19,16,80,65,48,29.95,29.85,29.75,10,8,1,21,15,29,0.00,7,,68
2013-4-12,30,28,26,25,22,21,86,79,69,29.75,29.69,29.65,10,4,0,14,8,20,0.01,8,,40
2013-4-13,30,27,24,25,20,16,86,75,55,29.88,29.76,29.70,10,5,0,18,6,18,0.05,6,,325
2013-4-14,41,36,30,28,25,21,87,69,45,29.92,29.75,29.63,10,8,1,25,14,38,0.17,7,,105
2013-4-15,39,36,33,30,27,23,87,70,56,29.76,29.62,29.52,10,10,10,24,11,31,0.23,7,,191
2013-4-16,39,34,28,28,24,21,81,64,49,30.31,30.14,29.95,10,10,5,16,11,24,0.00,3,,298
2013-4-17,37,32,26,27,25,19,80,72,60,30.36,30.28,30.16,10,10,10,12,5,,0.00,7,,40
2013-4-18,33,32,30,28,28,27,93,86,80,29.72,29.54,29.30,10,2,0,15,9,22,0.04,8,,26
2013-4-19,30,26,23,27,20,16,93,79,69,29.80,29.46,29.22,4,1,0,23,15,36,0.00,8,,356
2013-4-20,30,22,14,10,6,1,79,51,31,30.28,30.16,29.93,10,10,10,15,5,,0.02,1,,284
2013-4-21,39,37,35,30,28,27,81,69,61,30.27,30.11,30.02,10,10,5,22,16,38,0.34,8,,164
2013-4-22,41,37,33,34,28,19,93,72,42,30.17,30.11,30.03,10,8,2,18,11,26,0.00,7,,292
2013-4-23,37,32,28,30,24,16,100,74,41,30.02,29.99,29.96,10,4,0,16,11,23,0.08,6,,336
2013-4-24,44,38,33,30,25,19,87,62,37,29.88,29.84,29.82,10,9,1,18,10,23,0.02,6,,258
2013-4-25,44,36,28,30,25,18,100,67,34,30.13,30.01,29.86,10,9,3,16,8,24,0.07,3,,254
2013-4-26,60,48,35,36,32,23,81,54,39,30.12,30.06,29.99,10,10,9,16,7,22,0.00,0,,249
2013-4-27,68,49,30,37,32,27,87,57,28,30.11,30.04,29.92,10,10,10,13,2,17,0.00,0,,207
2013-4-28,66,60,53,46,40,39,77,45,37,29.83,29.70,29.68,10,10,9,10,7,,0.01,2,,195
2013-4-29,66,52,37,50,41,34,93,70,39,29.78,29.72,29.64,10,6,0,9,4,,0.00,2,,216
2013-4-30,77,64,51,55,47,34,88,60,35,29.84,29.59,29.43,10,10,8,22,11,29,0.00,1,,198